Location: Waco, TX
(31.5480°N, 97.1670°W)
Time: 18:08:07
(UTC-05:00)

ISS - Pass Details

Date: 30 September 2022
Orbit: 414 x 417 km, 51.6° (Epoch: 25 September)

Event Time Altitude Azimuth Distance (km) Brightness Sun altitude
Rises 15:35:09 0° 267° (W) 2,344 0.6 42.6°
Reaches altitude 10° 15:38:04 10° 295° (WNW) 1,485 -0.6 42.1°
Maximum altitude 15:39:50 14° 327° (NNW) 1,289 -1.2 41.8°
Drops below altitude 10° 15:41:36 10° 359° (N) 1,489 -1.2 41.5°
Sets 15:44:32 0° 27° (NNE) 2,355 -0.4 41.0°
